• In Uzbekistan
  • List of Countries
  • For 7 days
  • Water Temperature
  • Satellite Maps
  • Weather Map
  • Weather Widgets
  • user-avatar
    Login

    Hourly Weather Rudolstadt

    Today, 18 November, Saturday

    Time Temperature Precipitation Wind Pressure Humidity
    00:00 +5°C° 0 mm 1 mps 748 mmHg 92%
    01:00 +4°C° 0 mm 1 mps 748 mmHg 92%
    02:00 +4°C° 0 mm 1 mps 747 mmHg 92%
    03:00 +4°C° 0 mm 1 mps 747 mmHg 93%
    04:00 +2°C° 0 mm 2 mps 746 mmHg 94%
    05:00 +2°C° 0 mm 2 mps 746 mmHg 94%
    06:00 +2°C° 0 mm 2 mps 746 mmHg 94%
    07:00 +2°C° 0 mm 2 mps 745 mmHg 95%
    08:00 +1°C° 0 mm 3 mps 745 mmHg 92%
    09:00 +1°C° 0 mm 4 mps 745 mmHg 89%
    10:00 +1°C° 0 mm 4 mps 745 mmHg 86%
    11:00 +2°C° 0 mm 5 mps 744 mmHg 83%
    12:00 +2°C° 0 mm 5 mps 744 mmHg 80%
    13:00 +2°C° 0 mm 6 mps 743 mmHg 77%
    14:00 +2°C° 0 mm 6 mps 743 mmHg 77%
    15:00 +2°C° 0 mm 6 mps 742 mmHg 77%
    16:00 +2°C° 0 mm 6 mps 741 mmHg 76%
    17:00 +2°C° 0.1 mm 6 mps 741 mmHg 78%
    18:00 +2°C° 0.1 mm 6 mps 741 mmHg 79%
    19:00 +2°C° 0.1 mm 6 mps 741 mmHg 80%
    20:00 +2°C° 0.6 mm 6 mps 741 mmHg 82%
    21:00 +2°C° 0.6 mm 5 mps 741 mmHg 84%
    22:00 +3°C° 0.6 mm 4 mps 741 mmHg 86%
    23:00 +1°C° 0.1 mm 4 mps 741 mmHg 88%

    Tomorrow, 19 November, Sunday

    Time Temperature Precipitation Wind Pressure Humidity
    00:00 +1°C° 0.1 mm 4 mps 741 mmHg 89%
    01:00 0°C° 0.1 mm 4 mps 741 mmHg 90%
    02:00 0°C° 0 mm 4 mps 740 mmHg 90%
    03:00 0°C° 0 mm 4 mps 740 mmHg 90%
    04:00 0°C° 0 mm 4 mps 740 mmHg 90%
    05:00 0°C° 0 mm 4 mps 740 mmHg 89%
    06:00 0°C° 0 mm 5 mps 740 mmHg 89%
    07:00 0°C° 0 mm 5 mps 740 mmHg 88%
    08:00 +1°C° 0 mm 6 mps 740 mmHg 85%
    09:00 +1°C° 0 mm 6 mps 740 mmHg 83%
    10:00 +2°C° 0 mm 7 mps 740 mmHg 80%
    11:00 +2°C° 0.1 mm 7 mps 740 mmHg 79%
    12:00 +3°C° 0.1 mm 7 mps 740 mmHg 78%
    13:00 +3°C° 0.1 mm 7 mps 740 mmHg 76%
    14:00 +3°C° 0.2 mm 7 mps 740 mmHg 77%
    15:00 +3°C° 0.2 mm 6 mps 740 mmHg 78%
    16:00 +3°C° 0.2 mm 6 mps 741 mmHg 78%
    17:00 +3°C° 0.1 mm 6 mps 741 mmHg 81%
    18:00 +3°C° 0.1 mm 6 mps 742 mmHg 83%
    19:00 +2°C° 0.1 mm 6 mps 742 mmHg 86%
    20:00 +2°C° 0.1 mm 6 mps 742 mmHg 86%
    21:00 +2°C° 0.1 mm 6 mps 743 mmHg 87%
    22:00 +2°C° 0.1 mm 6 mps 743 mmHg 87%
    23:00 +2°C° 0.1 mm 6 mps 743 mmHg 87%

    Day after tomorrow, 20 November, Monday

    Time Temperature Precipitation Wind Pressure Humidity
    00:00 +2°C° 0.1 mm 6 mps 743 mmHg 87%
    01:00 +2°C° 0.1 mm 6 mps 744 mmHg 87%
    02:00 +2°C° 0.1 mm 6 mps 744 mmHg 87%
    03:00 +2°C° 0.1 mm 5 mps 744 mmHg 87%
    04:00 +2°C° 0.1 mm 5 mps 744 mmHg 87%
    05:00 +2°C° 0.1 mm 5 mps 744 mmHg 88%
    06:00 +2°C° 0.1 mm 5 mps 744 mmHg 88%
    07:00 +2°C° 0.1 mm 5 mps 744 mmHg 88%
    08:00 +2°C° 0.4 mm 5 mps 744 mmHg 87%
    09:00 +2°C° 0.4 mm 5 mps 744 mmHg 86%
    10:00 +2°C° 0.4 mm 6 mps 744 mmHg 85%
    11:00 +2°C° 0.4 mm 6 mps 743 mmHg 84%
    12:00 +2°C° 0.4 mm 6 mps 743 mmHg 83%
    13:00 +2°C° 0.4 mm 6 mps 742 mmHg 83%
    14:00 +2°C° 0.4 mm 6 mps 741 mmHg 84%
    15:00 +2°C° 0.4 mm 7 mps 741 mmHg 85%
    16:00 +2°C° 0.4 mm 7 mps 740 mmHg 86%
    17:00 +3°C° 0.3 mm 7 mps 739 mmHg 86%
    18:00 +3°C° 0.3 mm 7 mps 738 mmHg 87%
    19:00 +4°C° 0.3 mm 7 mps 738 mmHg 87%
    20:00 +4°C° 0.5 mm 8 mps 737 mmHg 88%
    21:00 +5°C° 0.5 mm 8 mps 737 mmHg 88%
    22:00 +5°C° 0.5 mm 8 mps 737 mmHg 88%
    23:00 +5°C° 0.8 mm 8 mps 736 mmHg 88%

    21 November, Tuesday

    Time Temperature Precipitation Wind Pressure Humidity
    00:00 +5°C° 0.8 mm 8 mps 736 mmHg 87%
    01:00 +6°C° 0.8 mm 8 mps 736 mmHg 87%
    02:00 +6°C° 0.2 mm 7 mps 736 mmHg 88%
    03:00 +6°C° 0.2 mm 7 mps 736 mmHg 89%
    04:00 +8°C° 0.2 mm 6 mps 736 mmHg 91%
    05:00 +8°C° 0.2 mm 6 mps 736 mmHg 91%
    06:00 +8°C° 0.2 mm 6 mps 737 mmHg 91%
    07:00 +8°C° 0.2 mm 6 mps 737 mmHg 91%
    08:00 +8°C° 0.2 mm 6 mps 737 mmHg 90%
    09:00 +8°C° 0.2 mm 6 mps 737 mmHg 90%
    10:00 +8°C° 0.2 mm 6 mps 738 mmHg 89%
    11:00 +9°C° 0.1 mm 6 mps 738 mmHg 88%
    12:00 +9°C° 0.1 mm 6 mps 738 mmHg 87%
    13:00 +9°C° 0.1 mm 6 mps 738 mmHg 86%
    14:00 +9°C° 0.2 mm 6 mps 738 mmHg 87%
    15:00 +9°C° 0.2 mm 5 mps 739 mmHg 88%
    16:00 +8°C° 0.2 mm 5 mps 739 mmHg 89%
    17:00 +8°C° 0.6 mm 5 mps 739 mmHg 90%
    18:00 +8°C° 0.6 mm 4 mps 739 mmHg 91%
    19:00 +8°C° 0.6 mm 4 mps 739 mmHg 92%
    20:00 +8°C° 0.1 mm 5 mps 739 mmHg 91%
    21:00 +8°C° 0.1 mm 5 mps 739 mmHg 90%
    22:00 +8°C° 0.1 mm 6 mps 739 mmHg 89%
    23:00 +7°C° 0 mm 5 mps 739 mmHg 89%

    22 November, Wednesday

    Time Temperature Precipitation Wind Pressure Humidity
    00:00 +7°C° 0 mm 5 mps 739 mmHg 89%
    01:00 +6°C° 0 mm 5 mps 739 mmHg 89%
    02:00 +6°C° 0 mm 5 mps 739 mmHg 89%
    03:00 +6°C° 0 mm 5 mps 739 mmHg 88%
    04:00 +6°C° 0 mm 5 mps 739 mmHg 88%
    05:00 +6°C° 0 mm 5 mps 739 mmHg 88%
    06:00 +6°C° 0 mm 5 mps 739 mmHg 88%
    07:00 +6°C° 0 mm 4 mps 740 mmHg 88%
    08:00 +6°C° 0 mm 5 mps 740 mmHg 87%
    09:00 +7°C° 0 mm 5 mps 740 mmHg 86%
    10:00 +7°C° 0 mm 5 mps 741 mmHg 85%
    11:00 +7°C° 0 mm 5 mps 741 mmHg 83%
    12:00 +8°C° 0 mm 5 mps 741 mmHg 82%
    13:00 +8°C° 0 mm 5 mps 741 mmHg 81%
    14:00 +7°C° 0 mm 4 mps 740 mmHg 83%
    15:00 +8°C° 0 mm 3 mps 740 mmHg 85%
    16:00 +8°C° 0 mm 3 mps 740 mmHg 87%
    17:00 +7°C° 0 mm 3 mps 740 mmHg 89%
    18:00 +5°C° 0 mm 3 mps 740 mmHg 91%
    19:00 +5°C° 0 mm 3 mps 740 mmHg 93%
    20:00 +4°C° 0 mm 3 mps 740 mmHg 92%
    21:00 +4°C° 0 mm 3 mps 740 mmHg 91%
    22:00 +4°C° 0 mm 3 mps 740 mmHg 91%
    23:00 +4°C° 0 mm 3 mps 740 mmHg 89%

    23 November, Thursday

    Time Temperature Precipitation Wind Pressure Humidity
    00:00 +4°C° 0 mm 3 mps 740 mmHg 87%
    01:00 +4°C° 0 mm 3 mps 739 mmHg 85%
    02:00 +5°C° 0 mm 3 mps 739 mmHg 83%
    03:00 +5°C° 0 mm 4 mps 739 mmHg 82%
    04:00 +5°C° 0 mm 4 mps 738 mmHg 80%
    05:00 +5°C° 0 mm 4 mps 738 mmHg 78%
    06:00 +5°C° 0 mm 4 mps 738 mmHg 76%
    07:00 +5°C° 0 mm 4 mps 738 mmHg 74%
    08:00 +6°C° 0 mm 5 mps 738 mmHg 70%
    09:00 +7°C° 0 mm 6 mps 739 mmHg 66%
    10:00 +8°C° 0 mm 6 mps 739 mmHg 63%
    11:00 +9°C° 0 mm 6 mps 739 mmHg 62%
    12:00 +10°C° 0 mm 6 mps 739 mmHg 62%
    13:00 +11°C° 0 mm 6 mps 738 mmHg 62%
    14:00 +10°C° 0 mm 6 mps 739 mmHg 66%
    15:00 +10°C° 0 mm 6 mps 739 mmHg 70%
    16:00 +9°C° 0 mm 5 mps 739 mmHg 75%
    17:00 +9°C° 0 mm 5 mps 739 mmHg 77%
    18:00 +9°C° 0 mm 5 mps 739 mmHg 79%
    19:00 +9°C° 0 mm 5 mps 740 mmHg 81%
    20:00 +9°C° 0 mm 5 mps 740 mmHg 82%
    21:00 +9°C° 0 mm 5 mps 741 mmHg 83%
    22:00 +10°C° 0 mm 4 mps 741 mmHg 84%
    23:00 +10°C° 0 mm 4 mps 741 mmHg 85%
    Show more